TimeCST,TemperatureF,Dew PointF,Humidity,Sea Level PressureIn,VisibilityMPH,Wind Direction,Wind SpeedMPH,Gust SpeedMPH,PrecipitationIn,Events,Conditions,WindDirDegrees,DateUTC
12:15 AM,36.9,11.7,35,30.26,10.0,WSW,8.1,-,N/A,,Clear,250,2014-01-25 06:15:00
12:35 AM,36.9,11.3,35,30.25,10.0,West,6.9,-,N/A,,Clear,260,2014-01-25 06:35:00
12:55 AM,37.9,11.3,33,30.24,10.0,WSW,10.4,-,N/A,,Clear,250,2014-01-25 06:55:00
1:15 AM,36.7,11.3,35,30.23,10.0,WSW,6.9,-,N/A,,Clear,250,2014-01-25 07:15:00
1:35 AM,36.3,11.7,36,30.22,10.0,WSW,10.4,-,N/A,,Clear,250,2014-01-25 07:35:00
1:55 AM,36.5,11.8,36,30.22,10.0,WSW,10.4,-,N/A,,Clear,250,2014-01-25 07:55:00
2:15 AM,35.6,12.0,38,30.21,10.0,West,8.1,-,N/A,,Clear,260,2014-01-25 08:15:00
2:35 AM,35.2,12.2,39,30.20,10.0,WSW,9.2,-,N/A,,Clear,250,2014-01-25 08:35:00
2:55 AM,35.4,12.2,38,30.20,10.0,West,5.8,-,N/A,,Clear,270,2014-01-25 08:55:00
3:15 AM,34.3,12.2,40,30.20,10.0,West,3.5,-,N/A,,Clear,270,2014-01-25 09:15:00
3:35 AM,32.4,12.2,43,30.20,10.0,West,4.6,-,N/A,,Clear,260,2014-01-25 09:35:00
3:55 AM,29.3,12.0,49,30.19,10.0,SW,4.6,-,N/A,,Clear,220,2014-01-25 09:55:00
4:15 AM,33.1,12.7,43,30.18,10.0,SW,5.8,-,N/A,,Clear,230,2014-01-25 10:15:00
4:35 AM,30.4,12.6,48,30.18,10.0,SSW,4.6,-,N/A,,Clear,210,2014-01-25 10:35:00
4:55 AM,32.0,12.9,45,30.17,10.0,WSW,5.8,-,N/A,,Clear,250,2014-01-25 10:55:00
5:15 AM,33.6,12.2,41,30.16,10.0,West,5.8,-,N/A,,Clear,260,2014-01-25 11:15:00
5:35 AM,36.9,11.8,36,30.17,10.0,West,4.6,-,N/A,,Clear,260,2014-01-25 11:35:00
5:55 AM,35.8,12.0,38,30.17,10.0,WSW,5.8,-,N/A,,Clear,250,2014-01-25 11:55:00
6:15 AM,36.5,11.8,36,30.17,10.0,WSW,4.6,-,N/A,,Clear,250,2014-01-25 12:15:00
6:35 AM,37.6,11.8,35,30.17,10.0,WNW,3.5,-,N/A,,Clear,290,2014-01-25 12:35:00
6:55 AM,36.9,11.8,36,30.17,10.0,WSW,4.6,-,N/A,,Clear,250,2014-01-25 12:55:00
7:15 AM,35.4,12.2,38,30.17,10.0,SW,9.2,-,N/A,,Clear,230,2014-01-25 13:15:00
7:35 AM,36.9,12.7,37,30.18,10.0,SW,6.9,-,N/A,,Clear,230,2014-01-25 13:35:00
7:55 AM,38.7,12.7,35,30.18,10.0,West,8.1,-,N/A,,Clear,270,2014-01-25 13:55:00
8:15 AM,39.4,13.1,34,30.18,10.0,West,4.6,-,N/A,,Clear,260,2014-01-25 14:15:00
8:35 AM,40.5,14.2,34,30.18,10.0,WSW,3.5,-,N/A,,Clear,240,2014-01-25 14:35:00
8:55 AM,42.8,13.6,31,30.18,10.0,West,6.9,-,N/A,,Clear,260,2014-01-25 14:55:00
9:15 AM,44.8,14.4,29,30.18,10.0,West,6.9,-,N/A,,Clear,260,2014-01-25 15:15:00
9:35 AM,47.8,15.3,27,30.18,10.0,WSW,6.9,-,N/A,,Clear,250,2014-01-25 15:35:00
9:55 AM,50.0,15.4,25,30.19,10.0,West,8.1,-,N/A,,Clear,270,2014-01-25 15:55:00
10:15 AM,52.0,15.1,23,30.19,10.0,West,8.1,-,N/A,,Clear,270,2014-01-25 16:15:00
10:35 AM,54.1,16.2,22,30.19,10.0,WSW,4.6,-,N/A,,Clear,250,2014-01-25 16:35:00
10:55 AM,56.3,16.9,21,30.19,10.0,SW,5.8,-,N/A,,Clear,220,2014-01-25 16:55:00
11:15 AM,58.1,16.3,20,30.20,10.0,NNE,5.8,-,N/A,,Clear,20,2014-01-25 17:15:00
11:35 AM,61.5,15.4,17,30.19,10.0,North,4.6,-,N/A,,Clear,10,2014-01-25 17:35:00
11:55 AM,62.8,14.4,15,30.18,10.0,NNE,4.6,-,N/A,,Clear,30,2014-01-25 17:55:00
12:15 PM,63.0,13.8,15,30.17,10.0,NE,4.6,-,N/A,,Clear,40,2014-01-25 18:15:00
12:35 PM,63.9,14.7,15,30.15,10.0,NNE,3.5,-,N/A,,Clear,30,2014-01-25 18:35:00
12:55 PM,65.1,16.3,15,30.14,10.0,NNE,6.9,-,N/A,,Clear,30,2014-01-25 18:55:00
1:15 PM,65.8,16.0,15,30.12,10.0,WNW,3.5,-,N/A,,Clear,300,2014-01-25 19:15:00
1:35 PM,67.8,17.1,14,30.11,10.0,Calm,Calm,-,N/A,,Clear,0,2014-01-25 19:35:00
1:55 PM,68.4,18.3,15,30.09,10.0,ENE,4.6,-,N/A,,Clear,60,2014-01-25 19:55:00
2:15 PM,68.4,19.0,15,30.09,10.0,Calm,Calm,-,N/A,,Clear,0,2014-01-25 20:15:00
2:35 PM,68.9,19.6,15,30.08,10.0,East,3.5,-,N/A,,Clear,90,2014-01-25 20:35:00
2:55 PM,68.4,20.3,16,30.08,10.0,East,4.6,-,N/A,,Clear,100,2014-01-25 20:55:00
3:15 PM,68.0,20.1,16,30.07,10.0,East,4.6,-,N/A,,Clear,100,2014-01-25 21:15:00
3:35 PM,68.0,20.5,16,30.06,10.0,East,4.6,-,N/A,,Clear,90,2014-01-25 21:35:00
3:55 PM,68.0,20.5,16,30.06,10.0,East,3.5,-,N/A,,Clear,100,2014-01-25 21:55:00
4:15 PM,68.0,22.1,18,30.06,10.0,Calm,Calm,-,N/A,,Clear,0,2014-01-25 22:15:00
4:35 PM,67.5,24.1,19,30.07,10.0,SSE,3.5,-,N/A,,Clear,160,2014-01-25 22:35:00
4:55 PM,66.6,28.4,24,30.07,10.0,South,3.5,-,N/A,,Clear,170,2014-01-25 22:55:00
5:15 PM,65.8,24.8,21,30.07,10.0,South,4.6,-,N/A,,Clear,180,2014-01-25 23:15:00
5:35 PM,65.1,25.7,23,30.07,10.0,South,3.5,-,N/A,,Clear,180,2014-01-25 23:35:00
5:55 PM,64.8,22.6,20,30.06,7.0,South,4.6,-,N/A,,Clear,180,2014-01-25 23:55:00
6:15 PM,62.2,21.9,21,30.06,10.0,South,5.8,-,N/A,,Clear,170,2014-01-26 00:15:00
6:35 PM,58.5,21.2,24,30.06,10.0,South,5.8,-,N/A,,Clear,180,2014-01-26 00:35:00
6:55 PM,59.2,20.7,23,30.06,10.0,SW,5.8,-,N/A,,Clear,220,2014-01-26 00:55:00
7:15 PM,58.3,20.1,23,30.06,10.0,SSW,4.6,-,N/A,,Clear,210,2014-01-26 01:15:00
7:35 PM,57.4,19.4,23,30.06,10.0,SSW,5.8,-,N/A,,Clear,200,2014-01-26 01:35:00
7:55 PM,56.1,18.5,23,30.06,10.0,WSW,4.6,-,N/A,,Clear,240,2014-01-26 01:55:00
8:15 PM,55.6,19.4,24,30.05,10.0,West,3.5,-,N/A,,Clear,270,2014-01-26 02:15:00
9:15 PM,52.9,20.3,28,30.03,10.0,WSW,4.6,-,N/A,,Clear,240,2014-01-26 03:15:00
9:35 PM,53.6,20.3,27,30.03,10.0,West,3.5,-,N/A,,Clear,280,2014-01-26 03:35:00
9:55 PM,51.1,22.3,32,30.03,10.0,WSW,3.5,-,N/A,,Clear,240,2014-01-26 03:55:00
10:15 PM,53.1,19.8,27,30.02,10.0,SSW,3.5,-,N/A,,Scattered Clouds,200,2014-01-26 04:15:00
10:35 PM,53.4,20.1,27,30.01,10.0,South,6.9,-,N/A,,Scattered Clouds,190,2014-01-26 04:35:00
10:55 PM,54.5,19.2,25,30.01,10.0,South,6.9,-,N/A,,Mostly Cloudy,190,2014-01-26 04:55:00
11:15 PM,54.5,18.7,25,30.00,10.0,SSW,4.6,-,N/A,,Overcast,210,2014-01-26 05:15:00
11:35 PM,53.4,19.8,27,29.99,10.0,South,6.9,-,N/A,,Overcast,190,2014-01-26 05:35:00
11:55 PM,53.8,19.0,26,29.99,10.0,SSW,3.5,-,N/A,,Overcast,210,2014-01-26 05:55:00